Gulfport, MS

3:36 PM CDT on May 29, 2017 (GMT -0500)
Gulfport-Biloxi Regional

Weather History for KGPT - September, 2012

Change the Weather History Date:

Friday, September 14, 2012

  Actual Average Record
Temperature  
Mean Temperature 80 °F -  
Max Temperature 90 °F 88 °F 96 °F (1980)
Min Temperature 71 °F 70 °F 56 °F (1964)
Cooling Degree Days 15    
Growing Degree Days 30 (Base 50)    
Moisture  
Dew Point 66 °F    
Average Humidity 66    
Maximum Humidity 91    
Minimum Humidity 42    
Precipitation  
Precipitation 0.00 in - - ()
Sea Level Pressure  
Sea Level Pressure 30.11 in    
Wind  
Wind Speed 5 mph (NE)    
Max Wind Speed 10 mph    
Max Gust Speed 16 mph    
Visibility 10 miles    
Events      
Averages and records for this station are not official NWS values.
T = Trace of Precipitation, MM = Missing Value Source: NWS Daily Summary

Daily Weather History Graph

Daily Weather History Graph

Search for Another Location

Airport or City:

Trip Planner

Search our weather history database for the weather conditions in past years. The results will help you decide how hot, cold, wet, or windy it might be!

Date:

Astronomy

Sep. 14, 2012 Rise Set
Actual Time 6:40 AM CDT 7:02 PM CDT
Civil Twilight 6:16 AM CDT 7:26 PM CDT
Nautical Twilight 5:48 AM CDT 7:54 PM CDT
Astronomical Twilight 5:19 AM CDT 8:23 PM CDT
Moon 5:08 AM CDT (9/14) 5:58 PM CDT (9/14)
Length of Visible Light 13h 10m
Length of Day
12h 21m
Waning Crescent, 2% of the Moon is Illuminated
Sep 14
Waning Crescent
Sep 15
New
Sep 22
First Quarter
Sep 29
Full
Oct 8
Last Quarter

Hourly Weather History & Observations

Time (CDT) Temp. Heat Index Dew Point Humidity Pressure Visibility Wind Dir Wind Speed Gust Speed Precip Events Conditions
12:53 AM 73.9 °F - 70.0 °F 87% 30.14 in 10.0 mi Calm Calm - N/A   Clear
1:53 AM 73.0 °F - 69.1 °F 87% 30.13 in 10.0 mi NE 4.6 mph - N/A   Clear
2:53 AM 72.0 °F - 69.1 °F 91% 30.12 in 10.0 mi NE 3.5 mph - N/A   Clear
3:53 AM 72.0 °F - 68.0 °F 87% 30.10 in 10.0 mi NE 4.6 mph - N/A   Clear
4:53 AM 72.0 °F - 66.0 °F 81% 30.11 in 10.0 mi ENE 4.6 mph - N/A   Clear
5:53 AM 71.1 °F - 64.9 °F 81% 30.11 in 10.0 mi North 3.5 mph - N/A   Clear
6:53 AM 71.1 °F - 64.0 °F 78% 30.12 in 10.0 mi NNE 4.6 mph - N/A   Clear
7:53 AM 73.4 °F - 64.4 °F 73% 30.13 in 10.0 mi NE 6.9 mph - N/A   Clear
8:53 AM 78.1 °F - 68.0 °F 71% 30.14 in 10.0 mi NE 6.9 mph - N/A   Clear
9:53 AM 80.1 °F 82.7 °F 68.0 °F 67% 30.14 in 10.0 mi East 6.9 mph - N/A   Clear
10:53 AM 82.9 °F 85.4 °F 66.9 °F 58% 30.14 in 10.0 mi ENE 5.8 mph - N/A   Clear
11:53 AM 86.0 °F 88.2 °F 66.0 °F 51% 30.14 in 10.0 mi ENE 10.4 mph - N/A   Partly Cloudy
12:53 PM 87.1 °F 88.3 °F 64.0 °F 46% 30.13 in 10.0 mi NE 9.2 mph - N/A   Scattered Clouds
1:53 PM 88.0 °F 88.7 °F 63.0 °F 43% 30.11 in 10.0 mi NE 8.1 mph 16.1 mph N/A   Scattered Clouds
2:53 PM 88.0 °F 88.7 °F 63.0 °F 43% 30.09 in 10.0 mi ENE 10.4 mph - N/A   Scattered Clouds
3:53 PM 87.1 °F 89.2 °F 66.0 °F 49% 30.07 in 10.0 mi East 4.6 mph - N/A   Partly Cloudy
4:53 PM 89.1 °F 90.0 °F 63.0 °F 42% 30.06 in 10.0 mi NE 9.2 mph 16.1 mph N/A   Partly Cloudy
5:53 PM 84.0 °F 87.8 °F 69.1 °F 61% 30.06 in 10.0 mi Calm Calm - N/A   Partly Cloudy
6:53 PM 82.9 °F 85.0 °F 66.0 °F 56% 30.06 in 10.0 mi NNE 3.5 mph - N/A   Clear
7:53 PM 80.1 °F 81.7 °F 64.0 °F 58% 30.08 in 10.0 mi North 4.6 mph - N/A   Clear
8:53 PM 79.0 °F - 64.0 °F 60% 30.10 in 10.0 mi North 5.8 mph - N/A   Clear
9:53 PM 77.0 °F - 64.9 °F 66% 30.12 in 10.0 mi NNE 4.6 mph - N/A   Clear
10:53 PM 75.0 °F - 64.0 °F 69% 30.12 in 10.0 mi NNE 5.8 mph - N/A   Clear
11:53 PM 73.9 °F - 64.0 °F 71% 30.12 in 10.0 mi NE 5.8 mph - N/A   Clear